Regional Weather Roundup
Issued by NWS Binghamton, NY

Home | Current Version | Previous Version | Text Only | Print | Product List | Glossary On
Versions: 1 2 3 4 5 6 7 8 9 10 11 12 13 14 15 16 17 18 19 20 21 22 23 24 25 26 27 28 29 30 31 32 33 34 35 36 37 38 39 40 41 42 43 44 45 46 47 48 49 50
692
ASUS41 KBGM 102010
RWRBGM

REGIONAL WEATHER ROUNDUP
NATIONAL WEATHER SERVICE BINGHAMTON NY
300 PM EST WED FEB 10 2016

Note: "fair" indicates few or no clouds below 12,000 feet with no
significant weather and/or obstructions to visibility.

* = Station(s) that does not report precipitation, such as rain,
snow, etc, also no thunder or fog.

!NYZ009-015>018-022>025-036-037-044>046-055>057-062-102100
...CENTRAL NEW YORK...

CITY           SKY/WX    TMP DP  RH WIND       PRES   REMARKS
BINGHAMTON     LGT SNOW  26  21  81 W10       29.56R WCI  16
CORTLAND       LGT SNOW  28  23  80 W6        29.59R WCI  22
DANSVILLE      FLURRIES  28  15  58 W12G21    29.65R WCI  18
ELMIRA         FLURRIES  30  19  63 W10       29.62R WCI  21
ITHACA         LGT SNOW  28  20  71 W10       29.61R WCI  19
HORNELL        CLOUDY    27  14  59 W13       29.66R WCI  16
MONTICELLO     CLOUDY    30  19  64 W13G21    29.57R WCI  20
NORWICH        PTSUNNY   28  18  64 W12G22    29.59R WCI  18
ONEONTA        MOSUNNY   27  19  74 W9G20     29.52R WCI  17
PENN YAN       CLOUDY    29  13  51 W21G32    29.62R WCI  16
ROME           LGT SNOW  29  25  85 W10       29.60R FOG     WCI  20
SIDNEY         LGT SNOW  32  27  80 NW7       29.59R WCI  26
SYRACUSE       FLURRIES  29  24  82 W20       29.60R WCI  16
$$

!PAZ038>040-043-044-047-048-072-102100
...NORTHEAST PENNSYLVANIA...

CITY           SKY/WX    TMP DP  RH WIND       PRES   REMARKS
HAZLETON       MOSUNNY   30  18  59 W9G16     29.64R WCI  22
SCRANTON       CLOUDY    31  19  61 W13       29.62R WCI  21
$$
&&
KEY
WCI = WIND CHILL INDEX
VSB = VISIBILITY
HX  = HEAT INDEX
$$




USA.gov is the U.S. government's official web portal to all federal, state and local government web resources and services.